Regional Weather Roundup
Issued by NWS Spokane, WA

Home | Current Version | Previous Version | Text Only | Print | Product List | Glossary On
Versions: 1 2 3 4 5 6 7 8 9 10 11 12 13 14 15 16 17 18 19 20 21 22 23 24 25 26 27 28 29 30 31 32 33 34 35 36 37 38 39 40 41 42 43 44 45 46 47 48 49 50
000
NZUS01 KOTX 250410
RWROTX
EASTERN WASHINGTON/NORTHERN IDAHO ROUNDUP
NATIONAL WEATHER SERVICE, SPOKANE WA
800 PM PST WED DEC 24 2014

Note: "fair" indicated few or no clouds below 12,000 feet with no
significant weather and/or obstructions to visibility.

...NORTHEAST WASHINGTON AND NORTHERN IDAHO PANHANDLE...

CITY           SKY/WX    TMP DP  RH WIND       PRES   REMARKS
SPOKANE INTL   CLOUDY    34  31  88 NW7       29.71R WCI  28
SPOKANE DOWNTO CLOUDY    37  34  89 W3        29.72R
COEUR D ALENE  CLOUDY    34  34 100 W6        29.69R WCI  29
DEER PARK      MOCLDY    29  28  96 NW5       29.71R WCI  24
SANDPOINT      MOCLDY    32  32 100 CALM      29.71R FOG

...SOUTHEAST WASHINGTON AND SOUTHERN IDAHO PANHANDLE...

CITY           SKY/WX    TMP DP  RH WIND       PRES   REMARKS
WALLA WALLA    CLOUDY    39  36  89 S12       29.83R
PULLMAN/MOSCOW MIX PCPN  33  33 100 W14       29.73R FOG     WCI  23
LEWISTON       CLOUDY    40  34  79 NW9       29.76R
LOWELL           N/A     36  35  96 CALM      29.72R

...COLUMBIA BASIN...

CITY           SKY/WX    TMP DP  RH WIND       PRES   REMARKS
EPHRATA        CLEAR     36  25  64 N7        29.80R
MOSES LAKE     CLEAR     37  26  64 NW14      29.82R
TRI CITIES     PTCLDY    41  29  62 SW6       29.86R
HERMISTON      CLEAR     37  32  82 SW10      29.87R
PENDLETON      MOCLDY    35  30  82 W21       29.83R WCI  24

...EAST SLOPES CASCADES...

CITY           SKY/WX    TMP DP  RH WIND       PRES   REMARKS
THE DALLES     CLEAR     46  33  60 VRB3G18   29.92R
YAKIMA         CLEAR     36  23  59 W13       29.86R
ELLENSBURG     CLEAR     39  27  62 NW18G25   29.83R
WENATCHEE      CLEAR     42  24  49 NW17      29.82R
OMAK           CLEAR     34  29  82 NW9       29.82R WCI  27

...SOUTHERN BRITISH COLUMBIA...

CITY           SKY/WX    TMP DP  RH WIND       PRES   REMARKS
PENTICTON      MOCLDY    34  32  93 VRB3      29.87R
CRANBROOK      MOCLDY    27  25  93 NW5       29.70R WCI  21

...WESTERN MONTANA...

CITY           SKY/WX    TMP DP  RH WIND       PRES   REMARKS
MISSOULA       CLOUDY    33  30  88 NW9       29.57R WCI  25

...NEIGHBORING CITIES...

CITY           SKY/WX    TMP DP  RH WIND       PRES   REMARKS
SEATTLE        PTCLDY    43  36  76 E5        30.00R
CALGARY        PTCLDY    25  16  68 N7        29.67R WCI  17



USA.gov is the U.S. government's official web portal to all federal, state and local government web resources and services.